Regional Weather Roundup
Issued by NWS

Home | Current Version | Previous Version | Graphics & Text | Print | Product List | Glossary On
Versions: 1 2 3 4 5 6 7 8 9 10 11 12 13 14 15 16 17 18 19 20 21 22 23 24 25 26 27 28 29 30 31 32 33 34 35 36 37 38 39 40 41 42 43 44 45 46 47 48 49 50
821
ASUS44 KMEG 280900
RWRTN
TENNESSEE HOURLY STATE WEATHER ROUNDUP
NATIONAL WEATHER SERVICE MEMPHIS TN
400 AM CDT SAT MAY 28 2016

TNZ002-004-019-021-049-052-054-088>092-281000-
WEST TENNESSEE

CITY           SKY/WX    TMP DP  RH WIND       PRES   REMARKS
MEMPHIS INTL   CLOUDY    69  66  90 CALM      29.92R
NWS MEMPHIS      N/A     67 N/A N/A MISG        N/A
JACKSON        CLOUDY    70  64  81 SE3       29.94R
DYERSBURG      CLOUDY    68  64  88 CALM      29.93R
UNION CITY     CLEAR     70  66  88 SE5       29.93R
PARIS          CLEAR     68  63  83 SE6       29.96R
LEXINGTON      CLEAR     72  63  73 SE6       29.95R
$$

TNZ008-025-027-028-033-062-065-066-281000-
NORTH MIDDLE TENNESSEE

CITY           SKY/WX    TMP DP  RH WIND       PRES   REMARKS
NASHVILLE      CLOUDY    72  64  76 SE6       30.01R
CLARKSVILLE    CLOUDY    69  65  86 SE5       29.98R
COOKEVILLE     CLEAR     72  63  73 S6        30.04S
CROSSVILLE     PTCLDY    68  59  73 VRB3      30.11S
$$

TNZ061-075-076-078-094-096-097-281000-
SOUTH MIDDLE TENNESSEE

CITY           SKY/WX    TMP DP  RH WIND       PRES   REMARKS
TULLAHOMA      CLEAR     68  68 100 S3        30.04S
WINCHESTER     CLEAR     72  63  73 SE8       30.04S
SHELBYVILLE    CLEAR     72  66  83 SE6       30.03R
$$

TNZ017-018-042-046-047-281000-
NORTHEAST TENNESSEE

CITY           SKY/WX    TMP DP  RH WIND       PRES   REMARKS
TRI CITIES     FOG       61  60  97 CALM      30.14S VSB 1/8
$$

TNZ012-013-036-069-073-074-281000-
CENTRAL EAST TENNESSEE

CITY           SKY/WX    TMP DP  RH WIND       PRES   REMARKS
KNOXVILLE      FOG       64  64 100 CALM      30.09R VSB 1/4
OAK RIDGE      FOG       67  66  97 CALM      30.11R VSB 1/2
GATLINBURG     CLOUDY    61  61 100 CALM      30.10R VSB 1/4
$$

TNZ083-085-099-281000-
SOUTHEAST TENNESSEE

CITY           SKY/WX    TMP DP  RH WIND       PRES   REMARKS
CHATTANOOGA    CLEAR     69  61  75 CALM      30.07R
$$

SKY/WX REPORTED AS FAIR MEANS FEW OR NO CLOUDS BELOW
12 THOUSAND FEET.





USA.gov is the U.S. government's official web portal to all federal, state and local government web resources and services.